Lincoln, IL

9:18 PM CDT on April 29, 2017 (GMT -0500)
Lincoln

Weather History for KAAA - January, 2014

Change the Weather History Date:

Wednesday, January 29, 2014

  Actual Average (KSPI) Record (KSPI)
Temperature  
Mean Temperature 19 °F -  
Max Temperature 33 °F 34 °F 64 °F (2008)
Min Temperature 5 °F 17 °F -11 °F (1966)
Degree Days  
Heating Degree Days 46    
Moisture  
Dew Point 4 °F    
Average Humidity 53    
Maximum Humidity 72    
Minimum Humidity 31    
Precipitation  
Precipitation 0.00 in - - ()
Sea Level Pressure  
Sea Level Pressure 30.23 in    
Wind  
Wind Speed 6 mph (SSW)    
Max Wind Speed 18 mph    
Max Gust Speed 23 mph    
Visibility 10 miles    
Events      
Averages and records for this station are not official NWS values.
T = Trace of Precipitation, MM = Missing Value Source: NWS Daily Summary

Daily Weather History Graph

Daily Weather History Graph

Search for Another Location

Airport or City:

Trip Planner

Search our weather history database for the weather conditions in past years. The results will help you decide how hot, cold, wet, or windy it might be!

Date:

Astronomy

Jan. 29, 2014 Rise Set
Actual Time 7:08 AM CST 5:12 PM CST
Civil Twilight 6:39 AM CST 5:41 PM CST
Nautical Twilight 6:07 AM CST 6:14 PM CST
Astronomical Twilight 5:35 AM CST 6:46 PM CST
Moon 5:45 AM CST (1/29) 4:12 PM CST (1/29)
Length of Visible Light 11h 01m
Length of Day
10h 03m
Waning Crescent, 2% of the Moon is Illuminated
Jan 29
Waning Crescent
Jan 30
New
Feb 6
First Quarter
Feb 14
Full
Feb 22
Last Quarter

Hourly Weather History & Observations

Time (CST) Temp. Windchill Dew Point Humidity Pressure Visibility Wind Dir Wind Speed Gust Speed Precip Events Conditions
12:15 AM 9.5 °F 1.2 °F -2.2 °F 59% 30.34 in 10.0 mi SW 4.6 mph - N/A   Clear
12:35 AM 9.1 °F 0.8 °F -2.0 °F 61% 30.33 in 10.0 mi SW 4.6 mph - N/A   Clear
12:55 AM 8.6 °F 2.0 °F -1.7 °F 63% 30.33 in 10.0 mi SW 3.5 mph - N/A   Clear
1:15 AM 8.4 °F -0.1 °F -1.5 °F 64% 30.32 in 10.0 mi SW 4.6 mph - N/A   Clear
1:35 AM 8.4 °F 1.8 °F -1.3 °F 65% 30.32 in 10.0 mi SW 3.5 mph - N/A   Clear
1:55 AM 8.2 °F 1.6 °F -1.3 °F 65% 30.32 in 10.0 mi SW 3.5 mph - N/A   Clear
2:15 AM 7.7 °F 1.0 °F -1.3 °F 67% 30.32 in 10.0 mi SW 3.5 mph - N/A   Clear
2:35 AM 7.7 °F 1.0 °F -1.3 °F 67% 30.32 in 10.0 mi SW 3.5 mph - N/A   Clear
2:55 AM 7.7 °F -0.9 °F -1.3 °F 67% 30.32 in 10.0 mi SW 4.6 mph - N/A   Clear
3:15 AM 7.7 °F 1.0 °F -1.3 °F 67% 30.32 in 10.0 mi SW 3.5 mph - N/A   Clear
3:35 AM 7.7 °F - -1.3 °F 67% 30.31 in 10.0 mi Calm Calm - N/A   Clear
3:55 AM 7.7 °F -0.9 °F -1.3 °F 67% 30.30 in 10.0 mi SW 4.6 mph - N/A   Clear
4:15 AM 7.7 °F - -1.3 °F 67% 30.30 in 10.0 mi Calm Calm - N/A   Clear
4:35 AM 8.2 °F 1.6 °F -1.3 °F 65% 30.30 in 10.0 mi SW 3.5 mph - N/A   Clear
4:55 AM 9.0 °F 0.6 °F -1.3 °F 63% 30.30 in 10.0 mi WSW 4.6 mph - N/A   Clear
5:15 AM 9.0 °F 2.4 °F -1.3 °F 63% 30.30 in 10.0 mi WSW 3.5 mph - N/A   Clear
5:35 AM 8.6 °F 2.0 °F -0.9 °F 65% 30.30 in 10.0 mi WSW 3.5 mph - N/A   Clear
5:55 AM 8.6 °F 2.0 °F -0.8 °F 66% 30.30 in 10.0 mi SW 3.5 mph - N/A   Clear
6:15 AM 7.3 °F - -1.3 °F 68% 30.30 in 10.0 mi Calm Calm - N/A   Clear
6:35 AM 6.6 °F - -1.3 °F 70% 30.30 in 10.0 mi Calm Calm - N/A   Clear
6:55 AM 5.9 °F - -1.3 °F 72% 30.31 in 10.0 mi Calm Calm - N/A   Clear
7:15 AM 6.3 °F - -1.1 °F 72% 30.31 in 10.0 mi Calm Calm - N/A   Clear
7:35 AM 6.8 °F -0.1 °F -0.4 °F 72% 30.31 in 10.0 mi SW 3.5 mph - N/A   Clear
7:55 AM 9.1 °F 0.8 °F 0.5 °F 68% 30.31 in 10.0 mi SW 4.6 mph - N/A   Clear
8:15 AM 11.3 °F 3.3 °F 1.6 °F 65% 30.32 in 10.0 mi SW 4.6 mph - N/A   Clear
8:35 AM 13.8 °F 6.2 °F 3.2 °F 63% 30.31 in 10.0 mi SW 4.6 mph - N/A   Clear
8:55 AM 15.6 °F 7.0 °F 4.5 °F 61% 30.31 in 10.0 mi SW 5.8 mph - N/A   Clear
9:15 AM 16.7 °F 7.2 °F 5.2 °F 61% 30.31 in 10.0 mi SW 6.9 mph - N/A   Clear
9:35 AM 18.7 °F 10.6 °F 6.3 °F 58% 30.31 in 10.0 mi SW 5.8 mph - N/A   Clear
9:55 AM 20.7 °F 13.0 °F 7.5 °F 57% 30.31 in 10.0 mi SW 5.8 mph - N/A   Clear
10:15 AM 22.6 °F 16.5 °F 8.2 °F 54% 30.30 in 10.0 mi SSW 4.6 mph - N/A   Clear
10:35 AM 24.3 °F 18.4 °F 7.7 °F 49% 30.30 in 10.0 mi WSW 4.6 mph - N/A   Clear
10:55 AM 25.9 °F 19.2 °F 7.7 °F 46% 30.29 in 10.0 mi SW 5.8 mph - N/A   Clear
11:15 AM 27.3 °F 19.9 °F 7.3 °F 43% 30.28 in 10.0 mi WSW 6.9 mph - N/A   Clear
11:35 AM 28.4 °F 21.2 °F 6.1 °F 39% 30.27 in 10.0 mi WSW 6.9 mph - N/A   Clear
11:55 AM 29.3 °F 24.3 °F 5.4 °F 36% 30.26 in 10.0 mi West 4.6 mph 16.1 mph N/A   Clear
12:15 PM 30.2 °F 21.9 °F 5.7 °F 36% 30.25 in 10.0 mi SW 9.2 mph - N/A   Clear
12:35 PM 31.3 °F 23.9 °F 5.4 °F 34% 30.24 in 10.0 mi SW 8.1 mph - N/A   Clear
12:55 PM 31.3 °F 23.9 °F 5.4 °F 34% 30.23 in 10.0 mi WSW 8.1 mph 17.3 mph N/A   Clear
1:15 PM 32.0 °F 22.1 °F 5.9 °F 33% 30.22 in 10.0 mi WSW 13.8 mph 20.7 mph N/A   Clear
1:35 PM 32.0 °F 23.6 °F 5.2 °F 32% 30.21 in 10.0 mi SSW 10.4 mph 17.3 mph N/A   Clear
1:55 PM 32.5 °F 24.2 °F 6.1 °F 33% 30.20 in 10.0 mi SW 10.4 mph 17.3 mph N/A   Clear
2:15 PM 32.7 °F 25.7 °F 6.6 °F 33% 30.20 in 10.0 mi SW 8.1 mph 19.6 mph N/A   Clear
2:35 PM 33.3 °F 24.6 °F 6.6 °F 33% 30.20 in 10.0 mi SW 11.5 mph - N/A   Clear
2:55 PM 32.7 °F 23.9 °F 5.2 °F 31% 30.19 in 10.0 mi SW 11.5 mph 18.4 mph N/A   Clear
3:15 PM 32.9 °F 24.1 °F 5.4 °F 31% 30.19 in 10.0 mi SSW 11.5 mph 20.7 mph N/A   Clear
3:35 PM 32.4 °F 24.6 °F 5.7 °F 33% 30.19 in 10.0 mi SW 9.2 mph 16.1 mph N/A   Clear
3:55 PM 32.0 °F 24.2 °F 6.1 °F 34% 30.19 in 10.0 mi SSW 9.2 mph 16.1 mph N/A   Clear
4:15 PM 31.6 °F 23.1 °F 5.7 °F 34% 30.19 in 10.0 mi SSW 10.4 mph 17.3 mph N/A   Clear
4:35 PM 30.6 °F 23.1 °F 5.9 °F 35% 30.18 in 10.0 mi SSW 8.1 mph - N/A   Clear
4:55 PM 29.8 °F 20.9 °F 6.8 °F 38% 30.18 in 10.0 mi South 10.4 mph - N/A   Clear
5:15 PM 28.6 °F 19.9 °F 7.3 °F 41% 30.17 in 10.0 mi South 9.2 mph - N/A   Clear
5:35 PM 27.9 °F 19.8 °F 7.3 °F 42% 30.17 in 10.0 mi South 8.1 mph 16.1 mph N/A   Clear
5:55 PM 27.1 °F 19.7 °F 7.3 °F 43% 30.17 in 10.0 mi South 6.9 mph - N/A   Clear
6:15 PM 25.9 °F 16.0 °F 7.7 °F 46% 30.17 in 10.0 mi South 10.4 mph - N/A   Clear
6:35 PM 25.2 °F 13.9 °F 7.7 °F 48% 30.16 in 10.0 mi South 12.7 mph - N/A   Clear
6:55 PM 24.8 °F 13.4 °F 8.1 °F 49% 30.15 in 10.0 mi South 12.7 mph - N/A   Clear
7:15 PM 24.8 °F 13.4 °F 7.7 °F 48% 30.15 in 10.0 mi South 12.7 mph - N/A   Clear
7:35 PM 24.6 °F 13.8 °F 7.5 °F 48% 30.15 in 10.0 mi South 11.5 mph - N/A   Clear
7:55 PM 23.7 °F 12.1 °F 7.9 °F 51% 30.14 in 10.0 mi South 12.7 mph - N/A   Clear
8:15 PM 23.0 °F 11.1 °F 8.4 °F 54% 30.14 in 10.0 mi South 12.7 mph - N/A   Clear
8:35 PM 22.6 °F 10.1 °F 8.4 °F 55% 30.13 in 10.0 mi South 13.8 mph - N/A   Clear
8:55 PM 22.8 °F 10.9 °F 8.6 °F 55% 30.12 in 10.0 mi South 12.7 mph - N/A   Clear
9:15 PM 22.8 °F 9.9 °F 8.6 °F 55% 30.11 in 10.0 mi South 15.0 mph - N/A   Clear
9:35 PM 23.0 °F 8.7 °F 8.2 °F 53% 30.10 in 10.0 mi South 18.4 mph - N/A   Clear
9:55 PM 23.0 °F 9.2 °F 8.4 °F 54% 30.10 in 10.0 mi South 17.3 mph - N/A   Clear
10:15 PM 22.3 °F 9.2 °F 9.0 °F 57% 30.11 in 10.0 mi South 15.0 mph - N/A   Clear
10:35 PM 22.6 °F 9.6 °F 9.1 °F 56% 30.11 in 10.0 mi South 15.0 mph 20.7 mph N/A   Clear
10:55 PM 22.8 °F 9.9 °F 9.5 °F 57% 30.10 in 10.0 mi South 15.0 mph - N/A   Clear
11:15 PM 23.0 °F 9.6 °F 9.5 °F 56% 30.08 in 10.0 mi South 16.1 mph - N/A   Clear
11:35 PM 22.8 °F 9.4 °F 9.5 °F 57% 30.08 in 10.0 mi South 16.1 mph 23.0 mph N/A   Clear
11:55 PM 22.8 °F 8.9 °F 9.9 °F 58% 30.07 in 10.0 mi South 17.3 mph - N/A   Clear